Meteo pe oră la Dzikowice

Astăzi, 8 Martie, Luni

Timp Temperatura Precipitaţii Vânt Presiune Umiditate
00:00 -2°C° 0.1 mm 4 m/s 750 mmHg 88%
01:00 -2°C° 0.1 mm 4 m/s 750 mmHg 94%
02:00 -1°C° 0.3 mm 3 m/s 750 mmHg 94%
03:00 -1°C° 0.3 mm 3 m/s 750 mmHg 94%
04:00 -1°C° 0.3 mm 2 m/s 750 mmHg 95%
05:00 -2°C° 0.1 mm 2 m/s 750 mmHg 94%
06:00 -2°C° 0.1 mm 2 m/s 751 mmHg 92%
07:00 -3°C° 0.1 mm 2 m/s 751 mmHg 91%
08:00 -2°C° 0 mm 2 m/s 752 mmHg 77%
09:00 +1°C° 0 mm 2 m/s 752 mmHg 62%
10:00 +2°C° 0 mm 2 m/s 753 mmHg 48%
11:00 +3°C° 0 mm 2 m/s 753 mmHg 44%
12:00 +3°C° 0 mm 2 m/s 753 mmHg 41%
13:00 +4°C° 0 mm 2 m/s 753 mmHg 37%
14:00 +4°C° 0 mm 2 m/s 753 mmHg 39%
15:00 +4°C° 0 mm 2 m/s 753 mmHg 40%
16:00 +4°C° 0 mm 2 m/s 753 mmHg 42%
17:00 +2°C° 0 mm 2 m/s 753 mmHg 48%
18:00 +2°C° 0 mm 1 m/s 753 mmHg 54%
19:00 0°C° 0 mm 1 m/s 753 mmHg 61%
20:00 0°C° 0 mm 1 m/s 754 mmHg 61%
21:00 -1°C° 0 mm 0 m/s 754 mmHg 62%
22:00 -1°C° 0 mm 0 m/s 754 mmHg 63%
23:00 -2°C° 0 mm 0 m/s 754 mmHg 64%

Mâine, 9 Martie, Marţi

Timp Temperatura Precipitaţii Vânt Presiune Umiditate
00:00 -2°C° 0 mm 0 m/s 754 mmHg 65%
01:00 -2°C° 0 mm 0 m/s 754 mmHg 66%
02:00 -2°C° 0 mm 0 m/s 753 mmHg 66%
03:00 -2°C° 0 mm 0 m/s 753 mmHg 66%
04:00 -2°C° 0 mm 0 m/s 753 mmHg 67%
05:00 -2°C° 0 mm 0 m/s 753 mmHg 66%
06:00 -2°C° 0 mm 0 m/s 753 mmHg 65%
07:00 -2°C° 0 mm 0 m/s 753 mmHg 64%
08:00 0°C° 0 mm 0 m/s 753 mmHg 58%
09:00 +1°C° 0 mm 0 m/s 753 mmHg 53%
10:00 +2°C° 0 mm 0 m/s 753 mmHg 47%
11:00 +3°C° 0 mm 0 m/s 752 mmHg 43%
12:00 +4°C° 0 mm 1 m/s 752 mmHg 39%
13:00 +5°C° 0 mm 1 m/s 752 mmHg 35%
14:00 +5°C° 0 mm 1 m/s 752 mmHg 35%
15:00 +5°C° 0 mm 1 m/s 751 mmHg 35%
16:00 +5°C° 0 mm 1 m/s 751 mmHg 35%
17:00 +3°C° 0 mm 1 m/s 751 mmHg 40%
18:00 +2°C° 0 mm 1 m/s 751 mmHg 46%
19:00 0°C° 0 mm 1 m/s 751 mmHg 51%
20:00 0°C° 0 mm 1 m/s 751 mmHg 53%
21:00 0°C° 0 mm 1 m/s 751 mmHg 54%
22:00 0°C° 0 mm 1 m/s 751 mmHg 56%
23:00 -1°C° 0 mm 1 m/s 751 mmHg 57%

Poimâine, 10 Martie, Miercuri

Timp Temperatura Precipitaţii Vânt Presiune Umiditate
00:00 -1°C° 0 mm 1 m/s 751 mmHg 58%
01:00 -1°C° 0 mm 1 m/s 751 mmHg 58%
02:00 -1°C° 0 mm 1 m/s 751 mmHg 59%
03:00 0°C° 0 mm 1 m/s 751 mmHg 60%
04:00 0°C° 0 mm 1 m/s 750 mmHg 61%
05:00 0°C° 0 mm 1 m/s 750 mmHg 63%
06:00 0°C° 0 mm 1 m/s 751 mmHg 65%
07:00 0°C° 0 mm 1 m/s 751 mmHg 68%
08:00 +1°C° 0 mm 1 m/s 751 mmHg 68%
09:00 +3°C° 0 mm 1 m/s 751 mmHg 68%
10:00 +4°C° 0 mm 1 m/s 751 mmHg 68%
11:00 +4°C° 0 mm 1 m/s 751 mmHg 66%
12:00 +4°C° 0 mm 2 m/s 751 mmHg 64%
13:00 +5°C° 0 mm 2 m/s 751 mmHg 63%
14:00 +5°C° 0 mm 2 m/s 751 mmHg 67%
15:00 +4°C° 0 mm 2 m/s 750 mmHg 72%
16:00 +4°C° 0 mm 2 m/s 750 mmHg 77%
17:00 +3°C° 0 mm 2 m/s 750 mmHg 81%
18:00 +2°C° 0 mm 2 m/s 750 mmHg 86%
19:00 +2°C° 0 mm 1 m/s 750 mmHg 91%
20:00 +1°C° 0 mm 2 m/s 750 mmHg 90%
21:00 +2°C° 0 mm 2 m/s 750 mmHg 89%
22:00 +1°C° 0 mm 3 m/s 749 mmHg 88%
23:00 +1°C° 0 mm 3 m/s 749 mmHg 87%

11 Martie, Joi

Timp Temperatura Precipitaţii Vânt Presiune Umiditate
00:00 +1°C° 0 mm 3 m/s 748 mmHg 87%
01:00 +1°C° 0 mm 3 m/s 747 mmHg 86%
02:00 +1°C° 0 mm 3 m/s 746 mmHg 84%
03:00 +2°C° 0 mm 3 m/s 746 mmHg 82%
04:00 +1°C° 0 mm 4 m/s 745 mmHg 80%
05:00 +1°C° 0.5 mm 4 m/s 744 mmHg 83%
06:00 +2°C° 0.5 mm 5 m/s 743 mmHg 86%
07:00 +2°C° 0.5 mm 5 m/s 742 mmHg 90%
08:00 +2°C° 1 mm 5 m/s 742 mmHg 89%
09:00 +3°C° 1 mm 5 m/s 741 mmHg 89%
10:00 +4°C° 1 mm 4 m/s 740 mmHg 89%
11:00 +5°C° 0.9 mm 5 m/s 740 mmHg 89%
12:00 +6°C° 0.9 mm 5 m/s 739 mmHg 89%
13:00 +7°C° 0.9 mm 6 m/s 739 mmHg 89%
14:00 +7°C° 1.2 mm 5 m/s 738 mmHg 89%
15:00 +8°C° 1.2 mm 5 m/s 738 mmHg 88%
16:00 +8°C° 1.2 mm 5 m/s 737 mmHg 88%
17:00 +8°C° 0.2 mm 5 m/s 737 mmHg 85%
18:00 +8°C° 0.2 mm 6 m/s 737 mmHg 82%
19:00 +8°C° 0.2 mm 6 m/s 737 mmHg 80%
20:00 +7°C° 0 mm 6 m/s 738 mmHg 79%
21:00 +7°C° 0 mm 6 m/s 738 mmHg 78%
22:00 +6°C° 0 mm 5 m/s 739 mmHg 77%
23:00 +4°C° 0 mm 6 m/s 739 mmHg 77%

12 Martie, Vineri

Timp Temperatura Precipitaţii Vânt Presiune Umiditate
00:00 +4°C° 0 mm 6 m/s 739 mmHg 77%
01:00 +4°C° 0 mm 6 m/s 739 mmHg 77%
02:00 +3°C° 0 mm 6 m/s 739 mmHg 76%
03:00 +3°C° 0 mm 6 m/s 739 mmHg 75%
04:00 +3°C° 0 mm 7 m/s 739 mmHg 75%
05:00 +2°C° 0.1 mm 7 m/s 740 mmHg 77%
06:00 +1°C° 0.1 mm 8 m/s 740 mmHg 80%
07:00 +1°C° 0.1 mm 9 m/s 741 mmHg 83%
08:00 +2°C° 0.1 mm 9 m/s 742 mmHg 78%
09:00 +2°C° 0.1 mm 9 m/s 742 mmHg 74%
10:00 +3°C° 0.1 mm 9 m/s 743 mmHg 70%
11:00 +5°C° 0.1 mm 9 m/s 743 mmHg 64%
12:00 +6°C° 0.1 mm 9 m/s 744 mmHg 59%
13:00 +7°C° 0.1 mm 9 m/s 744 mmHg 54%
14:00 +6°C° 0.1 mm 8 m/s 744 mmHg 54%
15:00 +6°C° 0.1 mm 7 m/s 744 mmHg 54%
16:00 +6°C° 0.1 mm 7 m/s 744 mmHg 53%
17:00 +5°C° 0 mm 6 m/s 744 mmHg 59%
18:00 +5°C° 0 mm 5 m/s 744 mmHg 65%
19:00 +4°C° 0 mm 4 m/s 744 mmHg 70%
20:00 +3°C° 0 mm 4 m/s 744 mmHg 72%
21:00 +3°C° 0 mm 4 m/s 744 mmHg 73%
22:00 +3°C° 0 mm 4 m/s 745 mmHg 74%
23:00 +1°C° 0 mm 4 m/s 744 mmHg 75%

13 Martie, Sâmbătă

Timp Temperatura Precipitaţii Vânt Presiune Umiditate
00:00 +1°C° 0 mm 4 m/s 744 mmHg 75%
01:00 +2°C° 0 mm 3 m/s 744 mmHg 76%
02:00 +1°C° 0 mm 4 m/s 744 mmHg 76%
03:00 +1°C° 0 mm 4 m/s 743 mmHg 76%
04:00 +1°C° 0 mm 4 m/s 743 mmHg 76%
05:00 +1°C° 0 mm 4 m/s 743 mmHg 77%
06:00 +1°C° 0 mm 4 m/s 743 mmHg 78%
07:00 +1°C° 0 mm 4 m/s 742 mmHg 79%
08:00 +3°C° 0 mm 5 m/s 742 mmHg 73%
09:00 +5°C° 0 mm 5 m/s 742 mmHg 67%
10:00 +7°C° 0 mm 6 m/s 742 mmHg 60%
11:00 +7°C° 0 mm 6 m/s 742 mmHg 63%
12:00 +7°C° 0 mm 6 m/s 742 mmHg 66%
13:00 +7°C° 0 mm 6 m/s 742 mmHg 69%
14:00 +7°C° 0.1 mm 5 m/s 741 mmHg 72%
15:00 +6°C° 0.1 mm 5 m/s 741 mmHg 75%
16:00 +6°C° 0.1 mm 4 m/s 741 mmHg 78%
17:00 +5°C° 0 mm 4 m/s 741 mmHg 80%
18:00 +4°C° 0 mm 3 m/s 741 mmHg 83%
19:00 +5°C° 0 mm 2 m/s 742 mmHg 85%
20:00 +4°C° 0.1 mm 3 m/s 742 mmHg 85%
21:00 +4°C° 0.1 mm 4 m/s 742 mmHg 84%
22:00 +4°C° 0.1 mm 4 m/s 742 mmHg 84%
23:00 +3°C° 0.1 mm 4 m/s 742 mmHg 83%
Arată mai mult

Formular de consimțământ

Meteoprog și furnizorii noștri de servicii pot stoca și accesa date personale, precum cookies, identificatori de dispozitiv sau alte tehnologii similare pe dispozitivul dumneavoastră și procesa astfel de date pentru a personaliza conținutul și reclamele, dar și pentru a oferi caracteristici de social media și pentru a analiza traficul.

  • Stocarea și/sau accesarea informațiilor pe dispozitivul dumneavoastră

    Cookies, identificatori de dispozitiv sau alte informații pot fi stocate sau accesate pe dispozitiv în scopurile indicate mai sus.

  • Reclame și conținut personalizat, evaluarea reclamelor și a conținutului, informații despre audiențe și dezvoltarea produselor

    Reclamele și conținutul pot fi personalizate pe baza unui profil. Pot fi adăugate date suplimentare pentru a personaliza mai bine reclamele și conținutul. Performanța reclamelor și conținutului poate fi măsurată. Pot fi obținute informații despre utilizatorii care au văzut reclamele și conținutul. Aceste date pot fi utilizate pentru a dezvolta sau îmbunătăți experiența utilizatorilor, sistemele și software-ul.

Dând clic pe ‘Sunt de acord’, permiteți utilizarea cookie-urilor menționate, a identificatorilor de dispozitiv, balizelor web sau altor tehnologii similare. Setările pot fi modificate din browser-ul dispozitivului dumneavoastră.

În anumite scopuri, interesele legitime pot prima asupra consimțământului. Puteți citi mai multe informații în acest sens în Politica privind Confidențialitatea Datelor și Cookie.